Home   Weather   Creighton   Past weeks

Flag for Canada Past Weather in Creighton, Saskatchewan, Canada — Yesterday and Last 2 Weeks

41 °F


Feels Like: 35 °F
Forecast: 36 / 40 °F
Wind: 10 mph from Southeast

Location: The Pas

Current Time: Oct 25, 2016 at 11:13:54 PM

Latest Report: Oct 25, 2016 at 10:00 PM

Visibility: 15 mi

Pressure: 30.24 "Hg

Humidity: 87%

Dew Point: 37 °F

Location of CreightonLocation

Past Weather in Creighton — Graph


Creighton Temperature Yesterday

Maximum temperature yesterday: 39 °F (at 4:00 PM)
Minimum temperature yesterday: 34 °F (at 12:00 AM)
Average temperature yesterday: 36 °F

High & Low Weather Summary for the Past Weeks

High46 °F (Oct 22, 3:00 PM)100% (Oct 17, 8:00 AM)30.45 "Hg (Oct 17, 8:00 AM)
Low23 °F (Oct 13, 6:00 AM)56% (Oct 13, 3:00 PM)29.21 "Hg (Oct 17, 8:00 AM)
Average34 °F84%29.97 "Hg
* Reported Oct 10 10:00 PM — Oct 25 10:00 PM, Creighton, Weather by CustomWeather, © 2016

Note: Actual official high and low records may vary slightly from our data, if they occured in-between our weather recording intervals... More about our weather records


Creighton Weather History for the Previous 24 Hours

Scroll right to see more
Time TempWeatherWind HumidityBarometerVisibility
10:00 PM
Tue, Oct 25
41 °FOvercast.10 mph87%30.24 "Hg15 mi
9:00 PM41 °FOvercast.13 mph81%30.24 "Hg15 mi
8:00 PM41 °FOvercast.16 mph81%30.24 "Hg15 mi
7:00 PM43 °FOvercast.14 mph81%30.25 "Hg15 mi
6:00 PM43 °FMostly cloudy.13 mph81%30.26 "Hg15 mi
5:55 PM43 °FMostly cloudy.12 mph81%30.26 "Hg15 mi
5:00 PM45 °FMore clouds than sun.13 mph76%30.27 "Hg15 mi
4:00 PM46 °FBroken clouds.12 mph71%30.29 "Hg15 mi
3:00 PM46 °FBroken clouds.15 mph66%30.30 "Hg15 mi
2:00 PM46 °FBroken clouds.23 mph71%30.31 "Hg15 mi
1:00 PM43 °FPartly sunny.14 mph76%30.33 "Hg15 mi
12:00 PM43 °FMostly cloudy.16 mph76%30.34 "Hg15 mi
11:00 AM41 °FBroken clouds.13 mph76%30.34 "Hg15 mi
10:00 AM41 °FMostly cloudy.10 mph76%30.36 "Hg15 mi
9:00 AM39 °FPartly sunny.12 mph81%30.36 "Hg15 mi
8:00 AM41 °FOvercast.15 mph81%30.37 "Hg15 mi
7:00 AM39 °FOvercast.8 mph87%30.38 "Hg15 mi
6:00 AM39 °FOvercast.8 mph87%30.39 "Hg15 mi
5:00 AM39 °FOvercast.9 mph81%30.40 "Hg15 mi
4:00 AM37 °FOvercast.10 mph87%30.40 "Hg15 mi
3:00 AM37 °FOvercast.8 mph81%30.41 "Hg15 mi
2:00 AM37 °FOvercast.8 mph81%30.42 "Hg15 mi
1:00 AM37 °FOvercast.9 mph81%30.41 "Hg15 mi
12:00 AM37 °FOvercast.9 mph81%30.42 "Hg15 mi
11:00 PM
Mon, Oct 24
37 °FOvercast.8 mph81%30.42 "Hg15 mi
Weather by CustomWeather, © 2016

See weather overviewHow to use our weather pages